When you browse on this site, cookies collect data to enhance your experience and personalize the content and advertising you see.
Visit our Privacy Policy to learn more. By continuing to use the site, you agree to this use of cookies and data.
  • In Hungary
  • List of Countries
  • For 7 days
  • Water Temperature
  • Satellite Maps
  • Weather Map
  • News
  • Weather Widgets
  • user-avatar
    Login

    Hourly Weather Potutory

    Today, 23 July, Tuesday

    Time Temperature Precipitation Wind Pressure Humidity
    00:00 +17°C° 0.2 mm 2 mps 739 mmHg 88%
    01:00 +17°C° 0.2 mm 2 mps 739 mmHg 89%
    02:00 +17°C° 0.2 mm 2 mps 738 mmHg 91%
    03:00 +17°C° 0.6 mm 2 mps 738 mmHg 91%
    04:00 +16°C° 0.6 mm 1 mps 738 mmHg 92%
    05:00 +16°C° 0.6 mm 1 mps 738 mmHg 92%
    06:00 +17°C° 0.6 mm 2 mps 738 mmHg 90%
    07:00 +18°C° 0.6 mm 2 mps 738 mmHg 88%
    08:00 +18°C° 0.6 mm 3 mps 738 mmHg 85%
    09:00 +19°C° 0.5 mm 4 mps 738 mmHg 82%
    10:00 +20°C° 0.5 mm 4 mps 738 mmHg 78%
    11:00 +21°C° 0.5 mm 4 mps 738 mmHg 74%
    12:00 +21°C° 0.5 mm 4 mps 738 mmHg 72%
    13:00 +22°C° 0.5 mm 4 mps 738 mmHg 70%
    14:00 +22°C° 0.5 mm 4 mps 737 mmHg 67%
    15:00 +22°C° 0.6 mm 4 mps 737 mmHg 70%
    16:00 +21°C° 0.6 mm 4 mps 737 mmHg 74%
    17:00 +21°C° 0.6 mm 5 mps 737 mmHg 77%
    18:00 +20°C° 0.2 mm 4 mps 737 mmHg 81%
    19:00 +18°C° 0.2 mm 4 mps 737 mmHg 85%
    20:00 +17°C° 0.2 mm 3 mps 737 mmHg 90%
    21:00 +16°C° 0 mm 3 mps 737 mmHg 91%
    22:00 +16°C° 0 mm 3 mps 737 mmHg 93%
    23:00 +14°C° 0 mm 3 mps 738 mmHg 95%

    Tomorrow, 24 July, Wednesday

    Time Temperature Precipitation Wind Pressure Humidity
    00:00 +13°C° 0 mm 3 mps 738 mmHg 96%
    01:00 +13°C° 0 mm 3 mps 737 mmHg 96%
    02:00 +13°C° 0 mm 3 mps 737 mmHg 97%
    03:00 +12°C° 0 mm 3 mps 737 mmHg 97%
    04:00 +12°C° 0 mm 3 mps 737 mmHg 97%
    05:00 +12°C° 0 mm 3 mps 737 mmHg 97%
    06:00 +13°C° 0 mm 3 mps 737 mmHg 94%
    07:00 +15°C° 0 mm 4 mps 737 mmHg 92%
    08:00 +17°C° 0 mm 4 mps 737 mmHg 89%
    09:00 +18°C° 0 mm 4 mps 737 mmHg 84%
    10:00 +20°C° 0 mm 4 mps 737 mmHg 79%
    11:00 +21°C° 0 mm 5 mps 737 mmHg 75%
    12:00 +22°C° 0.3 mm 5 mps 737 mmHg 73%
    13:00 +22°C° 0.3 mm 5 mps 737 mmHg 72%
    14:00 +23°C° 0.3 mm 5 mps 737 mmHg 70%
    15:00 +23°C° 0.2 mm 5 mps 737 mmHg 71%
    16:00 +23°C° 0.2 mm 5 mps 737 mmHg 72%
    17:00 +23°C° 0.2 mm 5 mps 736 mmHg 73%
    18:00 +21°C° 0.1 mm 4 mps 736 mmHg 78%
    19:00 +20°C° 0.1 mm 3 mps 736 mmHg 84%
    20:00 +19°C° 0.1 mm 3 mps 737 mmHg 89%
    21:00 +18°C° 0 mm 2 mps 737 mmHg 90%
    22:00 +17°C° 0 mm 2 mps 737 mmHg 91%
    23:00 +17°C° 0 mm 2 mps 737 mmHg 93%

    Day after tomorrow, 25 July, Thursday

    Time Temperature Precipitation Wind Pressure Humidity
    00:00 +16°C° 0 mm 2 mps 737 mmHg 93%
    01:00 +16°C° 0 mm 2 mps 737 mmHg 94%
    02:00 +16°C° 0 mm 2 mps 737 mmHg 94%
    03:00 +15°C° 0 mm 2 mps 738 mmHg 95%
    04:00 +15°C° 0 mm 2 mps 738 mmHg 95%
    05:00 +15°C° 0 mm 2 mps 738 mmHg 95%
    06:00 +16°C° 0 mm 2 mps 738 mmHg 92%
    07:00 +18°C° 0 mm 2 mps 738 mmHg 89%
    08:00 +19°C° 0 mm 2 mps 738 mmHg 86%
    09:00 +21°C° 0.1 mm 2 mps 738 mmHg 80%
    10:00 +23°C° 0.1 mm 2 mps 738 mmHg 74%
    11:00 +24°C° 0.1 mm 3 mps 738 mmHg 68%
    12:00 +25°C° 0.1 mm 3 mps 738 mmHg 65%
    13:00 +25°C° 0.1 mm 3 mps 738 mmHg 61%
    14:00 +26°C° 0.1 mm 3 mps 738 mmHg 58%
    15:00 +26°C° 0 mm 3 mps 737 mmHg 59%
    16:00 +26°C° 0 mm 3 mps 737 mmHg 61%
    17:00 +26°C° 0 mm 3 mps 737 mmHg 63%
    18:00 +24°C° 0 mm 2 mps 737 mmHg 69%
    19:00 +21°C° 0 mm 2 mps 736 mmHg 76%
    20:00 +21°C° 0 mm 1 mps 736 mmHg 82%
    21:00 +20°C° 0.1 mm 1 mps 736 mmHg 83%
    22:00 +20°C° 0.1 mm 1 mps 736 mmHg 85%
    23:00 +17°C° 0.1 mm 0 mps 736 mmHg 86%

    26 July, Friday

    Time Temperature Precipitation Wind Pressure Humidity
    00:00 +19°C° 0 mm 1 mps 736 mmHg 87%
    01:00 +18°C° 0 mm 1 mps 735 mmHg 89%
    02:00 +18°C° 0 mm 1 mps 735 mmHg 91%
    03:00 +16°C° 0 mm 1 mps 735 mmHg 91%
    04:00 +16°C° 0 mm 2 mps 735 mmHg 92%
    05:00 +16°C° 0 mm 2 mps 734 mmHg 93%
    06:00 +17°C° 0.3 mm 2 mps 734 mmHg 90%
    07:00 +19°C° 0.3 mm 3 mps 734 mmHg 87%
    08:00 +20°C° 0.3 mm 3 mps 734 mmHg 83%
    09:00 +21°C° 1.1 mm 4 mps 734 mmHg 81%
    10:00 +22°C° 1.1 mm 4 mps 734 mmHg 78%
    11:00 +23°C° 1.1 mm 4 mps 734 mmHg 75%
    12:00 +24°C° 0.9 mm 3 mps 734 mmHg 73%
    13:00 +24°C° 0.9 mm 3 mps 733 mmHg 70%
    14:00 +25°C° 0.9 mm 3 mps 733 mmHg 67%
    15:00 +24°C° 0.5 mm 3 mps 733 mmHg 70%
    16:00 +24°C° 0.5 mm 3 mps 733 mmHg 72%
    17:00 +24°C° 0.5 mm 3 mps 732 mmHg 75%
    18:00 +21°C° 0.5 mm 3 mps 732 mmHg 79%
    19:00 +20°C° 0.5 mm 2 mps 732 mmHg 83%
    20:00 +19°C° 0.5 mm 2 mps 732 mmHg 88%
    21:00 +19°C° 0.1 mm 1 mps 732 mmHg 88%
    22:00 +18°C° 0.1 mm 1 mps 732 mmHg 89%
    23:00 +18°C° 0.1 mm 1 mps 732 mmHg 89%

    27 July, Saturday

    Time Temperature Precipitation Wind Pressure Humidity
    00:00 +16°C° 0 mm 1 mps 732 mmHg 90%
    01:00 +15°C° 0 mm 0 mps 732 mmHg 91%
    02:00 +15°C° 0 mm 0 mps 732 mmHg 91%
    03:00 +14°C° 0 mm 0 mps 732 mmHg 92%
    04:00 +14°C° 0 mm 0 mps 732 mmHg 92%
    05:00 +14°C° 0 mm 0 mps 732 mmHg 93%
    06:00 +15°C° 0 mm 0 mps 732 mmHg 90%
    07:00 +17°C° 0 mm 0 mps 732 mmHg 87%
    08:00 +18°C° 0 mm 0 mps 732 mmHg 84%
    09:00 +21°C° 0.1 mm 1 mps 732 mmHg 79%
    10:00 +22°C° 0.1 mm 1 mps 732 mmHg 74%
    11:00 +24°C° 0.1 mm 1 mps 732 mmHg 69%
    12:00 +24°C° 0.6 mm 1 mps 732 mmHg 68%
    13:00 +25°C° 0.6 mm 2 mps 732 mmHg 66%
    14:00 +25°C° 0.6 mm 2 mps 732 mmHg 65%
    15:00 +25°C° 0.3 mm 2 mps 731 mmHg 66%
    16:00 +25°C° 0.3 mm 2 mps 731 mmHg 67%
    17:00 +25°C° 0.3 mm 2 mps 731 mmHg 69%
    18:00 +24°C° 1.5 mm 2 mps 731 mmHg 74%
    19:00 +21°C° 1.5 mm 2 mps 731 mmHg 79%
    20:00 +20°C° 1.5 mm 2 mps 731 mmHg 84%
    21:00 +19°C° 0.9 mm 2 mps 731 mmHg 87%
    22:00 +19°C° 0.9 mm 3 mps 731 mmHg 89%
    23:00 +18°C° 0.9 mm 3 mps 731 mmHg 91%

    28 July, Sunday

    Time Temperature Precipitation Wind Pressure Humidity
    00:00 +18°C° 0.1 mm 3 mps 731 mmHg 93%
    01:00 +17°C° 0.1 mm 3 mps 731 mmHg 94%
    02:00 +17°C° 0.1 mm 3 mps 731 mmHg 96%
    03:00 +17°C° 0.1 mm 3 mps 731 mmHg 96%
    04:00 +17°C° 0.1 mm 2 mps 731 mmHg 96%
    05:00 +16°C° 0.1 mm 2 mps 731 mmHg 96%
    06:00 +17°C° 0.7 mm 2 mps 731 mmHg 95%
    07:00 +19°C° 0.7 mm 3 mps 731 mmHg 93%
    08:00 +20°C° 0.7 mm 3 mps 731 mmHg 92%
    09:00 +21°C° 1.6 mm 3 mps 731 mmHg 87%
    10:00 +22°C° 1.6 mm 3 mps 731 mmHg 82%
    11:00 +25°C° 1.6 mm 3 mps 731 mmHg 78%
    12:00 +25°C° 0.8 mm 3 mps 731 mmHg 75%
    13:00 +26°C° 0.8 mm 3 mps 731 mmHg 72%
    14:00 +27°C° 0.8 mm 3 mps 731 mmHg 70%
    15:00 +27°C° 0.2 mm 3 mps 731 mmHg 71%
    16:00 +27°C° 0.2 mm 3 mps 730 mmHg 72%
    17:00 +27°C° 0.2 mm 3 mps 730 mmHg 73%
    18:00 +25°C° 0.5 mm 3 mps 730 mmHg 78%
    19:00 +24°C° 0.5 mm 3 mps 730 mmHg 84%
    20:00 +21°C° 0.5 mm 2 mps 730 mmHg 89%
    21:00 +21°C° 0.1 mm 2 mps 731 mmHg 90%
    22:00 +20°C° 0.1 mm 2 mps 731 mmHg 91%
    23:00 +20°C° 0.1 mm 2 mps 731 mmHg 92%
    Show more